Flag for U.S.A. Weather past 2 weeks in Redmond, Washington, U.S.A.

Now
48 °F

More clouds than sun.


Feels Like: 48 °F
Forecast: 44 / 53 °F
Wind: No wind

Location: Seattle Boeing Field

Current Time: Jan 28, 2015 at 8:27:57 AM

Latest Report: Jan 28, 2015 at 7:53 AM


Visibility: 10 mi

Pressure: 30.36 "Hg

Humidity: 80%

Dew point: 42 °F

Location of RedmondLocation

Historic Weather in Redmond — Graph

°F

Redmond temperature yesterday

Maximum temperature yesterday: 55 °F (at 5:53 PM)
Minimum temperature yesterday: 50 °F (at 12:53 AM)
Average temperature yesterday: 52 °F

Past Weeks' High & Low Weather Summary

 TemperatureHumidityPressure
High65 °F (Jan 25, 2:53 PM)94% (Jan 26, 5:01 AM)30.47 "Hg (Jan 26, 5:01 AM)
Low33 °F (Jan 21, 6:53 AM)52% (Jan 26, 2:53 PM)29.60 "Hg (Jan 17, 11:53 PM)
Average49 °F78%30.19 "Hg
* Reported Jan 13 6:53 AM — Jan 28 6:53 AM, Redmond, Weather by CustomWeather, © 2014

Note: Actual official high and low records may vary slightly from our data, if they occured in-between our weather recording intervals... More about our weather records

Advertising

Redmond weather history for previous 24 hours

 ConditionsComfort  
Time TempWeatherWind HumidityBarometerVisibility
6:53 AM
Jan 28
49 °FPassing clouds.No wind80%30.36 "Hg10 mi
5:53 AM48 °FMostly cloudy.3 mph83%30.35 "Hg10 mi
4:53 AM48 °FOvercast.5 mph80%30.34 "Hg10 mi
3:53 AM48 °FOvercast.6 mph80%30.34 "Hg10 mi
2:53 AM49 °FOvercast.5 mph77%30.33 "Hg10 mi
1:53 AM49 °FOvercast.5 mph84%30.32 "Hg10 mi
12:53 AM50 °FOvercast.No wind83%30.30 "Hg7 mi
11:53 PM
Jan 27
50 °FMostly cloudy.No wind83%30.28 "Hg8 mi
10:53 PM50 °FMostly cloudy.No wind83%30.27 "Hg10 mi
9:53 PM51 °FMostly cloudy.6 mph80%30.24 "Hg10 mi
8:53 PM51 °FFog.6 mph86%30.22 "Hg4 mi
7:53 PM53 °FFog.No wind83%30.19 "Hg4 mi
6:53 PM53 °FFog.No wind86%30.16 "Hg4 mi
5:53 PM55 °FMostly cloudy.No wind80%30.14 "Hg3 mi
4:53 PM54 °FMore clouds than sun.3 mph83%30.13 "Hg7 mi
3:53 PM54 °FMore clouds than sun.5 mph83%30.12 "Hg5 mi
2:53 PM53 °FFog.5 mph86%30.11 "Hg2 mi
1:53 PM54 °FMore clouds than sun.7 mph80%30.09 "Hg10 mi
12:53 PM53 °FLow clouds.7 mph86%30.09 "Hg8 mi
11:53 AM52 °FFog.7 mph86%30.09 "Hg2 mi
11:00 AM54 °FMostly cloudy.5 mph82%30.09 "Hg2 mi
9:53 AM53 °FMore clouds than sun.8 mph80%30.06 "Hg10 mi
8:53 AM52 °FOvercast.10 mph80%30.05 "Hg8 mi
Weather by CustomWeather, © 2014

See weather overviewHow to use our weather pages